ATLAS 5 CENTAUR DEB, 44849

Orbit data source: Space-Track

ATLAS 5 CENTAUR DEB, 44849 is space debris in HEO originally from a launch on Wed, 17 Sep 2014 UTC launched from the Air Force Eastern Test Range (AFETR). Debris objects in space refer to the collection of defunct objects orbiting the Earth. Examples of debris include non-operational satellites, rocket bodies, and fragments generated from explosions, collisions, or faulty payload assembly.

Loading next visibility...
Identifier
44849, 2014-055CH
Orbit
HEO
Country
Flag of USUS
Related business
Flag of USUnited Launch Alliance/Lockheed Martin (US)
Manufacturer
Unknown
Mission
Spacecraft
Bus & Motor
Unknown
Mass
Unknown
Launch date (UTC)
2014-09-17 (11 years ago)
Launch vehicle
Unknown
Launch site
Air Force Eastern Test Range (AFETR)
Object type
Payload
Rocket body
Debris
Shape & HBR
Unknown shape, 1.1 m
Radar Cross Section
RCS unknown

Expand to show TLE details & history
Last TLE update: 4 days ago

TLE from 4 days ago
0 ATLAS 5 CENTAUR DEB
1 44849U 14055CH  26068.12702146  .00000060  00000-0  00000-0 0  9995
2 44849  21.1595  97.8416 5032893 247.5876  52.8081  1.95521545 47044
Epoch: 2026-03-09T03:02Z
TLE epoch observation values (Epoch: 2026-03-09T03:02:54.654Z)
Latitude
-0.00003°
Longitude
-114.64262°
Altitude
18,576.555 km
Speed
4.146 km/s
True Right ascension
06h 31m 38s
True Declination
0° 00' 00"
Sunlit
Object was in daylight at epoch
Visualization orbit readout
Latitude
Unknown
Longitude
Unknown
Altitude
Unknown
Speed
Unknown
Apparent Right ascension
Unknown
Apparent Declination
Unknown
Sunlit
N/A
Visualization observer readout
Local Sidereal Time
12:29:02
Azimuth
Unknown
Elevation
Unknown
Doppler factor
Unknown
Orbital elements
Apogee altitude
34,236.347 km
Perigee altitude
7,041.535 km
Semi-major axis
27,017.078 km
Eccentricity
0.50329
Inclination
21.1595°
RAAN
97.8416°
Arg. of periapsis
247.5876°
True anomaly
112.41068°
Mean anomaly
52.8081°
Eccentric anomaly
81.3137°
Mean motion
0.48875 °/min
Orbital period
736.57 mins
BSTAR
0
Loading maneuver chart data...
Computing Atmospheric mass density...

Documentation

Showing up to 5 results
|